{"data":{"norad_id":55741,"intl_designator":"2023-028A","name":"STARLINK-5592","alt_names":[],"object_type":"PAYLOAD","status":"ACTIVE","operator":null,"country":"US","launch_date":"2023-03-03","launch_site_code":"AFWTR","launch_vehicle":null,"mission":null,"orbit_class":"UNKNOWN","rcs_meters":null,"size_class":null,"mass_kg":null,"dimensions":null,"purposes":["comms"],"wikipedia_slug":null,"has_3d_model":false,"image_url":null,"decayed_at":null,"tle_current":{"epoch":"2026-09-20T22:00:03.000096Z","epoch_age_seconds":67093,"freshness":"FRESH","line1":"1 55741U 23028A   26263.91670139  .00068118  00000+0  45680-2 0  9990","line2":"2 55741  70.0008 112.2532 0005274 296.5865  31.2141 15.06461710  5710","mean_motion":15.0646171,"eccentricity":0.0005274,"inclination_deg":70.0008,"raan_deg":112.2532,"arg_perigee_deg":296.5865,"mean_anomaly_deg":31.2141,"bstar":0.004568,"rev_number":571,"period_min":95.588224409633,"perigee_km":543.37010304794,"apogee_km":550.67476121695,"semimajor_km":6925.1594321324,"source":"CELESTRAK","updated_at":"2026-09-21T09:00:33.311367Z"}}}